SCP
0 0 0 0 0 0 0 0 0 0 0 0 0 0 0 0 0 0 0 0 0 0 0 0 0 0 0 -0 0 0 0 0 0 0 0 0 0 0 0 0 -0 -0 0 0 0 0 0 -0 0 0 0 -0 -0 0
0 0 0 0 0 0 0 0 0 0 0 0 0 0 0 0 0 0 0 0 0 0 0 0 -0 -0 -0 -0 -0 0 0 0 0 0 0 0 0 0 0 0 0 0 0 0 0 0 0 0 0 -0 -0 0 0 -0
0 0 0 0 0 0 0 0 0 0 0 0 0 0 0 0 0 0 0 0 0 0 0 0 0 -0 -0 -0 -0 0 0 0 0 0 0 0 0 0 0 0 -0 -0 -0 0 0 0 -0 -0 -0 -0 -0 -0 -0 -0
0 0 0 0 0 0 0 0 0 0 0 0 0 0 0 0 0 0 0 0 0 0 0 0 0 -0 -0 -0 -0 -0 0 0 0 0 0 0 0 0 0 0 0 0 0 0 0 0 0 -0 -0 -0 -0 -0 -0 0
0 0 0 0 0 0 0 0 0 0 0 0 0 0 0 0 0 0 0 0 0 0 0 -0 -0 0 -0 -0 -0 -0 0 -0 0 0 0 0 0 0 0 0 0 0 -0 0 0 0 -0 -0 -0 -0 -0 -0 -0 -0
0 0 0 0 0 0 0 0 0 0 0 0 0 0 0 0 0 0 0 0 0 0 0 0 0 0 -0 -0 -0 -0 0 0 0 0 0 0 0 0 0 0 0 -0 -0 -0 -0 -0 -0 0 -0 -0 -0 -0 -0 0
0 0 0 0 0 0 0 0 0 0 0 0 0 0 0 0 0 0 0 0 0 0 0 0 -0 -0 0 -0 -0 -0 0 0 0 0 0 0 0 0 0 0 0 0 -0 -0 -0 -0 -0 0 0 0 -0 -0 0 -0
0 0 0 0 0 0 0 0 0 0 0 0 0 0 0 0 0 0 0 0 0 0 0 0 -0 -0 -0 -0 -0 0 -0 -0 0 0 0 -0 -0 0 0 0 0 0 0 0 -0 -0 -0 -0 -0 -0 0 0 -0 0
0 0 0 0 0 0 0 0 0 0 0 -0 -0 0 0 0 0 0 0 0 0 0 0 -0 0 -0 0 -0 -0 0 0 0 0 0 0 0 0 0 -0 0 -0 -0 -0 -0 -0 -0 0 0 -0 -0 0 0 0 0
0 0 0 0 0 0 0 0 0 0 -0 -0 0 0 0 0 0 0 0 0 0 0 -0 0 0 0 -0 -0 -0 0 -0 0 0 0 0 -0 0 0 0 0 -0 -0 -0 0 0 0 0 0 0 -0 -0 -0 -0 0
0 0 0 0 0 0 0 0 0 0 0 0 0 0 0 0 0 0 0 0 0 -0 -0 0 0 0 0 0 0 -0 0 0 0 0 0 -0 0 0 0 -0 -0 -0 -0 -0 -0 -0 -0 -0 -0 -0 -0 -0 -0 -0
0 0 0 0 0 0 0 0 0 0 0 0 0 0 0 0 0 0 0 0 -0 0 0 0 0 0 0 -0 0 0 0 -0 -0 0 0 0 -0 0 -0 -0 -0 -0 -0 -0 -0 -0 -0 -0 -0 -0 -0 -0 -0 -0
0 0 0 0 0 0 0 0 0 0 0 0 0 0 0 0 0 0 0 0 0 0 0 -0 -0 0 0 -0 0 0 0 0 -0 0 0 0 -0 -0 -0 -0 0 0 0 -0 -0 -0 -0 -0 -0 -0 -0 -0 0 0
0 0 0 0 0 0 0 0 0 0 0 0 0 0 0 0 0 0 0 0 0 0 0 -0 -0 -0 0 -0 0 0 0 0 0 0 0 0 -0 -0 -0 -0 0 0 0 0 0 0 0 0 0 0 0 0 0 0
0 0 0 0 -0 -0 0 0 0 0 0 0 0 0 0 0 0 0 0 0 0 0 0 0 0 0 0 0 0 -0 0 0 0 0 0 0 0 -0 -0 -0 0 0 0 0 0 0 0 0 0 0 0 0 0 0
0 0 0 -0 0 0 0 0 0 0 0 0 0 0 0 0 0 0 0 0 0 0 0 0 -0 -0 0 0 0 0 0 0 -0 0 -0 -0 -0 0 0 0 0 0 0 0 0 0 0 0 0 0 0 0 0 0
0 0 0 -0 0 0 0 0 0 0 0 0 0 0 0 0 0 0 0 0 0 0 0 0 0 0 -0 -0 -0 0 -0 0 0 0 0 -0 0 0 0 0 0 0 0 0 0 0 0 0 0 0 -0 -0 -0 0
0 0 0 0 0 0 0 0 0 0 0 0 0 0 0 0 0 0 0 0 0 0 0 0 0 0 0 0 -0 0 0 0 0 0 0 0 0 0 0 0 0 0 0 0 0 0 0 0 0 0 0 0 0 0
0 0 0 0 0 0 0 0 0 0 0 0 0 0 0 0 0 0 0 0 0 0 0 0 0 0 0 0 0 -0 0 0 0 0 0 0 0 0 0 0 0 0 0 0 0 0 0 0 0 0 0 0 0 0
0 0 0 0 0 0 0 0 0 0 0 0 0 -0 0 0 0 0 0 0 0 0 0 0 0 -0 0 0 0 0 0 0 0 -0 0 0 0 0 0 0 0 0 0 0 0 0 0 0 0 0 0 0 0 0
0 0 0 0 0 0 0 0 0 0 0 0 0 0 0 0 0 0 0 0 0 0 0 -0 0 0 0 -0 0 0 -0 0 0 0 0 0 0 0 0 0 0 0 0 0 0 0 0 0 0 0 0 0 0 0
0 0 0 0 0 0 0 0 0 0 0 0 -0 0 0 0 0 0 0 0 0 0 0 0 0 0 0 0 0 -0 -0 0 -0 -0 -0 0 0 0 0 0 0 0 0 0 0 0 0 0 0 0 0 0 0 0
0 0 0 0 0 0 0 0 0 0 -0 0 0 0 -0 -0 0 0 -0 0 0 0 0 0 0 0 0 0 0 -0 -0 0 0 -0 0 0 0 0 0 0 0 0 0 0 0 0 0 0 0 -0 -0 -0 -0 -0
0 0 0 0 0 0 0 0 0 0 0 0 0 0 0 -0 -0 -0 -0 0 0 0 0 0 0 0 0 0 -0 -0 -0 -0 0 0 0 0 0 0 0 0 0 0 0 0 0 0 0 0 0 -0 -0 -0 -0 -0
0 0 0 -0 -0 0 0 0 0 0 0 0 0 -0 -0 -0 -0 0 0 0 0 0 0 0 0 0 -0 -0 0 0 0 0 0 0 0 -0 0 0 0 0 0 0 0 0 0 0 0 0 0 0 0 0 -0 -0
0 0 0 0 0 0 0 0 0 0 0 0 0 -0 -0 -0 0 0 0 0 0 0 0 0 0 0 0 0 0 0 0 -0 0 -0 -0 -0 0 0 0 0 0 0 0 0 0 0 0 0 0 0 0 0 0 -0
0 0 0 0 0 0 0 0 0 0 0 0 0 -0 -0 0 0 0 0 0 0 0 0 0 0 0 0 0 0 0 0 0 -0 -0 0 -0 -0 -0 0 0 0 0 0 0 0 0 0 0 0 0 0 0 0 0
0 0 0 0 0 0 0 0 0 0 0 0 -0 0 0 0 0 0 0 0 0 0 0 0 0 0 0 0 0 0 0 0 -0 0 0 -0 -0 0 0 0 0 0 0 0 0 0 0 0 0 0 0 0 0 0
0 0 0 0 0 0 0 0 0 0 0 0 0 0 0 -0 -0 0 0 0 0 -0 -0 -0 0 0 0 0 0 0 0 0 0 0 0 0 0 0 0 0 0 0 0 0 0 0 0 0 0 0 0 0 0 0
0 0 0 0 0 0 0 0 0 -0 0 0 0 0 0 0 0 0 0 0 0 0 -0 0 -0 -0 0 0 0 0 0 0 0 0 0 0 0 0 0 0 0 0 0 0 0 0 0 0 0 0 0 0 0 0
0 0 0 0 0 0 0 0 0 0 0 0 0 0 0 0 0 0 0 0 0 0 0 0 0 0 0 -0 0 0 0 0 0 0 0 0 0 0 0 0 0 0 0 0 0 0 0 0 0 0 0 0 -0 -0
0 0 0 0 0 0 0 0 0 0 0 0 0 0 0 0 0 0 0 0 0 0 0 0 0 0 0 0 0 0 0 0 0 0 0 0 0 0 0 0 0 0 0 0 0 0 0 0 0 0 0 0 0 -0
0 0 0 0 0 0 0 0 0 0 0 0 0 0 0 0 0 0 0 0 0 0 0 0 0 0 0 0 0 0 0 0 0 0 0 0 0 0 0 0 0 0 0 0 0 0 0 0 0 0 0 0 0 0
Wind_Speed_500mb
52 51 50 50 50 50 52 49 45 43 42 41 35 31 33 33 27 29 38 22 25 37 70 66 46 42 58 59 17 39 23 5 5 8 6 7 6 7 8 7 9 1 5 1 6 4 8 50 26 12 18 47 31 8
51 51 51 50 48 45 48 44 42 41 40 37 32 32 35 32 30 30 42 30 22 45 66 86 90 61 55 53 57 21 17 30 8 3 3 6 6 7 9 6 10 5 9 3 7 5 17 34 22 39 45 19 33 22
50 50 49 48 46 44 44 40 40 40 39 33 33 35 37 34 32 31 41 34 30 40 65 22 31 30 46 44 44 25 16 11 10 12 4 5 8 5 6 5 9 4 14 4 4 10 22 32 38 46 40 47 62 55
48 49 48 45 44 42 42 38 40 40 34 33 34 40 35 35 36 34 38 25 23 21 13 20 48 57 21 19 25 41 55 31 17 10 7 5 6 6 5 9 7 7 11 6 4 8 5 42 40 39 57 66 68 61
47 47 46 43 41 42 37 38 39 37 32 33 38 38 34 34 34 32 23 17 25 28 11 42 74 21 15 25 18 24 33 41 20 5 5 6 7 7 5 6 9 15 9 7 6 11 29 34 48 54 78 68 67 75
46 45 43 41 39 39 38 37 36 33 33 36 37 36 32 30 25 25 9 2 2 25 14 9 26 30 27 27 21 22 30 27 15 10 7 8 12 7 5 5 17 30 32 35 31 53 50 53 69 73 77 71 82 80
46 45 41 40 38 36 38 37 33 33 35 36 35 32 28 24 22 16 10 9 15 31 11 14 14 19 25 28 13 7 14 10 8 6 8 6 7 6 5 5 5 2 16 24 32 39 50 48 50 68 77 78 82 81
43 44 40 39 37 32 34 34 32 34 35 34 31 26 23 22 26 22 10 9 7 13 9 6 10 16 27 14 16 4 3 3 8 5 4 3 1 8 6 9 12 10 2 14 18 35 47 45 42 43 54 60 62 60
41 39 38 36 32 29 32 30 30 32 30 22 18 17 16 10 8 9 17 19 15 14 6 10 5 7 24 16 14 6 6 2 11 4 5 7 5 5 12 17 3 19 23 36 38 38 44 46 46 46 48 48 49 42
35 36 32 30 27 29 27 27 28 27 16 8 12 4 7 4 18 26 11 3 12 10 12 8 13 7 14 13 9 12 3 2 3 5 4 6 5 7 7 15 19 14 30 38 47 42 41 40 39 40 40 33 30 23
31 30 28 27 26 24 23 23 22 14 7 7 6 8 18 19 14 8 7 10 13 9 15 15 23 15 13 4 5 10 6 4 4 5 6 6 4 11 25 27 32 36 42 46 50 44 38 36 34 31 27 22 17 14
27 26 25 27 22 20 20 19 11 6 9 12 16 21 18 5 11 8 7 9 12 8 18 10 13 14 8 7 6 8 5 2 8 7 5 3 8 33 37 41 41 40 38 38 35 37 32 26 22 24 20 11 6 2
27 24 26 21 19 19 19 17 10 9 10 3 5 5 7 9 5 10 8 7 2 3 5 11 6 7 4 7 9 6 6 7 6 6 6 5 26 43 45 41 38 35 34 32 29 27 24 24 22 12 5 5 9 12
25 25 20 18 17 17 18 11 6 3 4 5 6 8 9 10 10 9 6 6 10 10 19 24 15 5 3 5 7 6 8 7 3 4 2 11 39 48 43 38 34 34 33 30 28 25 21 21 17 4 8 14 18 18
21 19 17 14 8 3 1 4 5 8 4 7 9 9 13 26 25 9 13 14 11 19 23 19 13 12 6 7 5 8 7 2 6 4 8 36 49 43 40 39 35 29 28 27 23 23 22 16 12 8 12 15 17 17
17 13 8 7 6 11 2 8 8 10 7 9 15 14 30 23 14 20 23 15 16 18 27 15 4 6 7 2 7 5 5 4 6 5 40 48 46 35 37 35 31 33 27 25 21 18 14 9 2 5 11 10 10 12
14 10 9 3 8 9 2 3 10 10 11 11 17 35 45 31 29 27 21 20 15 13 4 6 5 3 8 5 6 5 2 6 30 35 39 39 39 42 39 34 31 28 24 22 22 17 14 9 9 6 13 8 7 8
11 15 17 6 5 2 8 13 9 11 15 25 23 36 33 28 26 21 24 20 10 2 3 5 6 6 7 8 5 7 18 24 29 33 39 40 44 39 36 30 28 27 26 19 9 10 10 5 1 6 8 4 2 9
26 21 17 11 9 9 6 11 15 12 26 33 38 40 37 29 28 25 24 18 10 7 10 3 4 5 5 8 11 2 11 25 32 35 38 38 35 33 32 29 26 23 20 19 17 8 3 6 5 6 3 2 2 3
27 27 23 17 13 9 9 11 18 14 14 15 24 35 26 25 22 24 22 19 15 8 7 6 7 14 8 17 15 6 14 21 42 42 37 32 30 30 25 25 26 26 20 16 9 8 8 3 5 5 1 5 6 6
10 10 11 12 14 16 11 10 14 18 19 22 32 33 19 27 27 25 26 23 16 9 8 22 28 25 17 19 13 16 22 26 31 40 42 38 32 27 23 20 27 23 25 25 20 13 5 6 3 4 5 5 6 10
10 11 9 14 11 11 15 19 15 16 16 27 37 34 24 21 19 4 13 14 11 25 27 23 19 18 12 10 12 27 32 23 27 26 32 35 36 31 28 19 14 31 18 14 13 11 8 6 5 5 3 8 6 7
12 11 10 11 12 10 15 15 11 11 8 8 11 14 13 6 4 4 4 6 8 18 16 15 18 13 13 20 25 24 15 29 31 38 37 33 28 25 18 16 21 26 20 13 13 16 10 4 9 9 10 10 10 16
12 7 8 9 18 9 11 9 13 10 14 17 13 20 5 6 7 4 5 6 11 8 11 9 8 9 26 23 24 22 25 26 26 26 32 32 29 22 20 19 16 14 15 22 16 5 8 8 11 11 11 11 11 11
5 9 8 10 11 10 9 19 27 18 24 20 9 11 9 11 2 4 2 1 13 9 8 7 8 16 13 21 18 17 25 22 24 19 27 32 35 31 24 19 14 9 16 16 12 11 14 8 8 11 15 14 12 9
9 11 14 11 10 11 9 6 5 9 16 9 8 9 6 7 6 4 2 7 17 10 3 2 4 5 14 8 13 15 18 17 19 18 26 28 25 30 29 28 23 21 19 14 20 16 13 14 11 12 9 13 20 16
8 10 19 19 23 21 12 19 24 13 15 9 6 4 3 3 5 1 1 13 20 16 18 15 13 17 21 16 11 6 8 15 24 16 16 24 22 24 25 28 29 20 22 20 22 21 14 22 22 18 13 10 16 15
14 11 16 19 23 25 19 17 15 9 7 11 5 6 3 5 3 6 7 16 19 17 12 9 13 16 16 20 15 9 13 11 28 12 16 24 20 18 16 17 17 15 17 17 19 26 20 17 19 23 18 7 13 20
15 15 19 23 21 14 11 13 14 5 13 14 4 4 5 6 13 11 9 14 15 21 29 24 23 10 9 16 17 6 10 15 21 23 17 31 31 26 17 11 9 14 17 18 20 21 22 22 23 20 17 9 2 12
23 27 21 18 16 11 18 9 1 5 5 13 12 20 19 14 13 10 12 13 12 13 17 16 19 23 22 8 7 5 13 13 15 19 19 22 24 21 20 19 19 11 17 16 21 26 26 22 22 25 24 22 18 12
11 8 23 28 22 23 15 7 2 11 10 5 5 13 14 11 13 13 17 13 13 16 23 27 32 30 25 25 22 11 8 11 9 13 18 19 16 16 16 10 9 1 12 20 18 20 27 32 31 33 30 29 28 20
20 22 19 16 19 15 14 8 12 6 2 2 9 12 19 18 10 8 14 9 14 21 20 17 16 15 18 18 14 13 13 11 8 8 10 10 12 18 14 18 19 19 12 10 19 19 27 22 32 28 29 32 33 33
23 24 24 22 19 20 4 3 3 5 4 6 14 20 18 11 8 9 12 16 15 15 12 12 5 6 5 5 5 11 8 7 11 14 10 14 20 20 19 25 25 20 16 18 14 19 26 24 28 31 33 32 32 35
Wind_Direction_500mb
308 310 313 315 316 317 320 318 320 318 318 323 323 321 323 325 331 323 315 312 296 279 286 287 276 293 292 287 283 288 323 32 322 355 330 349 295 311 300 280 337 329 268 240 275 322 360 348 350 25 307 299 312 192
305 307 310 312 313 312 314 315 320 319 318 318 318 321 321 321 322 320 306 309 288 289 274 286 293 287 274 270 272 275 264 299 270 315 327 303 283 288 311 331 342 40 355 15 18 354 306 327 330 324 326 79 129 167
304 306 307 309 311 310 315 315 314 315 317 316 319 318 317 319 316 310 306 315 316 292 303 284 292 314 297 287 289 243 265 244 235 224 276 282 281 296 305 8 318 48 18 39 235 353 347 4 13 15 46 78 120 135
300 301 303 306 308 309 313 311 311 312 312 312 315 316 319 320 317 312 306 314 286 285 285 286 316 316 344 308 248 253 262 256 266 226 225 261 272 286 317 342 348 318 337 15 50 314 356 27 35 36 62 77 103 116
296 297 299 302 305 307 308 308 307 307 307 310 313 317 317 316 317 322 325 324 283 251 285 299 318 344 334 322 295 253 264 245 225 183 218 230 241 256 292 23 6 352 343 26 22 60 66 46 53 64 74 71 87 97
291 293 295 296 299 302 311 309 306 302 305 311 313 316 314 311 324 338 329 322 62 32 305 306 300 293 343 347 305 299 278 242 208 194 225 254 248 246 31 50 4 56 62 86 87 80 70 67 65 69 78 80 87 87
286 287 290 291 292 294 302 305 303 302 307 312 312 309 305 305 293 263 243 246 295 330 299 300 290 286 326 339 317 1 292 254 209 233 220 228 287 139 36 59 186 354 93 97 91 84 70 69 73 76 79 78 85 93
277 279 283 285 289 294 297 302 301 304 311 312 309 308 302 294 290 292 326 302 249 245 258 278 281 283 0 331 323 306 337 196 231 259 232 266 4 82 55 267 267 238 230 144 121 112 105 95 88 87 84 81 81 85
268 269 275 278 283 290 297 297 300 308 315 313 316 308 293 274 242 291 313 289 272 223 255 218 263 298 330 333 299 287 219 229 165 247 236 149 44 72 203 221 187 151 132 119 109 114 92 86 83 84 86 85 86 90
257 257 267 270 280 289 290 295 305 312 319 314 319 299 255 262 326 308 309 200 203 214 227 257 283 280 320 344 294 319 263 4 281 226 86 62 43 101 157 200 172 158 138 121 105 94 92 84 83 79 79 86 91 89
241 250 258 267 278 278 285 297 309 317 321 22 294 253 270 269 293 241 247 212 181 220 212 236 238 253 275 252 294 295 322 209 267 188 106 141 133 189 141 134 110 107 104 101 101 102 103 104 100 95 89 89 91 97
241 250 254 270 266 274 285 291 290 293 281 284 292 305 312 258 231 250 229 204 204 228 174 215 251 236 233 236 260 266 261 182 237 137 63 104 155 165 128 113 108 107 104 101 102 98 92 91 101 103 98 89 75 58
242 253 265 255 261 272 276 282 277 292 327 166 259 265 248 246 237 226 226 227 239 78 220 255 290 185 198 235 253 262 273 237 176 35 133 148 145 135 124 121 118 117 115 111 107 102 99 101 96 82 68 356 329 316
245 252 243 250 261 269 272 265 242 268 165 242 233 240 235 210 233 217 274 305 304 303 312 325 327 235 270 202 230 257 244 257 97 70 94 138 132 133 134 134 132 130 121 113 109 106 110 119 106 62 0 345 351 14
233 228 235 240 260 320 252 183 196 177 216 254 234 239 233 244 273 312 272 274 317 310 330 320 288 192 225 253 221 267 254 103 101 220 131 143 145 142 143 142 136 131 126 115 107 101 98 108 110 71 11 3 20 20
209 221 233 172 77 21 1 192 194 188 233 235 236 252 277 294 310 304 310 324 319 301 311 281 272 256 249 308 247 254 321 138 159 92 135 143 141 153 148 141 143 135 124 117 106 98 99 113 200 12 19 40 37 21
189 164 176 70 27 15 33 172 178 215 239 230 237 236 253 277 276 282 294 311 315 330 325 302 266 301 287 230 313 30 351 109 117 126 136 147 149 146 140 135 130 128 127 123 114 105 102 99 117 90 34 59 70 24
165 193 208 224 342 4 249 209 229 239 244 246 256 261 261 239 259 273 259 270 279 295 0 354 318 279 299 324 71 313 67 100 118 133 146 142 141 143 144 140 137 137 137 130 116 119 107 121 83 24 30 87 100 8
180 203 216 235 272 237 241 220 212 256 239 248 254 260 266 252 241 250 253 267 242 225 148 203 270 250 281 33 357 188 138 123 131 137 136 144 146 141 141 143 146 147 148 138 146 150 98 82 96 102 129 137 149 98
218 234 249 257 230 214 235 230 214 249 264 269 275 277 272 254 241 244 243 239 221 199 211 211 227 230 245 284 307 225 185 148 140 129 137 144 147 148 156 164 158 170 175 171 159 146 116 63 53 117 188 164 160 131
158 186 205 221 207 223 266 256 235 249 268 273 273 278 254 256 251 238 240 224 202 207 226 226 247 274 280 288 268 187 171 171 166 158 158 156 165 161 170 179 185 187 170 172 166 153 139 56 102 135 81 135 161 155
186 186 206 202 234 231 247 239 244 280 292 266 278 271 268 251 245 246 253 225 225 231 233 248 264 286 298 306 183 178 182 180 173 164 170 169 173 180 181 188 192 163 151 152 155 163 145 131 131 89 88 148 179 167
175 195 217 225 226 240 257 236 229 232 250 293 298 232 257 238 96 306 253 273 257 234 237 243 260 278 301 157 161 177 171 174 168 169 174 177 173 165 174 172 164 139 137 147 139 166 165 80 126 119 117 128 136 148
196 217 228 226 208 250 252 224 232 242 252 252 257 244 133 126 341 219 247 205 249 244 213 247 329 71 156 164 167 170 159 157 164 175 169 165 159 162 154 148 152 146 165 173 184 143 116 97 142 153 128 114 124 118
204 243 220 255 243 239 260 252 242 245 263 270 308 272 132 138 223 213 232 193 134 119 137 50 72 163 164 155 140 143 168 167 155 153 158 160 147 141 139 151 163 179 190 182 161 145 163 145 146 142 157 143 145 157
223 227 199 222 228 224 238 293 312 313 294 268 259 27 114 156 195 46 343 90 92 63 137 62 83 78 140 197 197 146 141 169 163 165 164 172 162 161 164 171 175 174 202 209 183 188 173 166 172 193 146 145 157 159
241 249 221 241 259 285 292 300 308 275 284 295 19 51 49 54 78 228 15 94 76 59 110 108 120 111 110 99 152 179 202 168 186 177 168 170 170 177 180 191 199 209 207 201 191 199 186 178 192 203 211 191 171 163
241 273 259 252 253 265 276 288 292 299 336 4 13 69 75 50 0 351 62 109 103 76 76 116 133 150 167 144 116 119 148 163 169 166 153 164 163 164 173 181 188 210 214 212 192 199 203 188 179 196 227 220 177 169
235 243 256 264 261 251 246 252 254 35 335 1 63 73 88 109 126 63 94 111 112 89 81 89 80 93 136 165 172 254 181 177 178 179 148 138 133 115 120 139 161 185 204 202 207 214 209 199 203 204 224 250 233 169
243 229 237 248 236 246 253 273 26 152 84 47 91 104 96 101 68 44 94 95 93 99 105 86 87 83 76 103 134 140 72 75 129 151 171 131 127 142 147 142 128 109 200 209 198 205 209 205 200 201 204 213 221 211
238 224 232 245 255 263 264 280 93 151 127 100 139 158 135 126 134 86 88 81 111 109 112 99 95 88 77 66 58 51 104 138 145 139 153 150 169 185 137 189 175 359 181 195 206 211 210 212 213 212 209 209 221 227
230 235 247 255 260 265 254 209 180 136 53 148 203 183 153 141 126 95 48 95 113 108 108 106 109 101 100 91 79 65 60 73 111 130 138 163 184 208 216 192 200 201 185 192 203 226 228 214 212 217 217 215 218 227
219 234 231 240 256 263 211 102 101 123 149 205 211 190 164 140 117 145 109 109 112 113 107 98 70 314 333 213 135 129 70 324 313 309 280 250 244 238 228 224 228 227 227 199 198 207 209 216 221 222 226 226 224 225
Wind_Speed_850mb
52 51 50 50 50 50 52 49 45 43 42 41 35 31 33 33 27 29 38 22 25 37 70 66 46 42 58 59 17 39 23 5 5 8 6 7 6 7 8 7 9 1 5 1 6 4 8 50 26 12 18 47 31 8
51 51 51 50 48 45 48 44 42 41 40 37 32 32 35 32 30 30 42 30 22 45 66 86 90 61 55 53 57 21 17 30 8 3 3 6 6 7 9 6 10 5 9 3 7 5 17 34 22 39 45 19 33 22
50 50 49 48 46 44 44 40 40 40 39 33 33 35 37 34 32 31 41 34 30 40 65 22 31 30 46 44 44 25 16 11 10 12 4 5 8 5 6 5 9 4 14 4 4 10 22 32 38 46 40 47 62 55
48 49 48 45 44 42 42 38 40 40 34 33 34 40 35 35 36 34 38 25 23 21 13 20 48 57 21 19 25 41 55 31 17 10 7 5 6 6 5 9 7 7 11 6 4 8 5 42 40 39 57 66 68 61
47 47 46 43 41 42 37 38 39 37 32 33 38 38 34 34 34 32 23 17 25 28 11 42 74 21 15 25 18 24 33 41 20 5 5 6 7 7 5 6 9 15 9 7 6 11 29 34 48 54 78 68 67 75
46 45 43 41 39 39 38 37 36 33 33 36 37 36 32 30 25 25 9 2 2 25 14 9 26 30 27 27 21 22 30 27 15 10 7 8 12 7 5 5 17 30 32 35 31 53 50 53 69 73 77 71 82 80
46 45 41 40 38 36 38 37 33 33 35 36 35 32 28 24 22 16 10 9 15 31 11 14 14 19 25 28 13 7 14 10 8 6 8 6 7 6 5 5 5 2 16 24 32 39 50 48 50 68 77 78 82 81
43 44 40 39 37 32 34 34 32 34 35 34 31 26 23 22 26 22 10 9 7 13 9 6 10 16 27 14 16 4 3 3 8 5 4 3 1 8 6 9 12 10 2 14 18 35 47 45 42 43 54 60 62 60
41 39 38 36 32 29 32 30 30 32 30 22 18 17 16 10 8 9 17 19 15 14 6 10 5 7 24 16 14 6 6 2 11 4 5 7 5 5 12 17 3 19 23 36 38 38 44 46 46 46 48 48 49 42
35 36 32 30 27 29 27 27 28 27 16 8 12 4 7 4 18 26 11 3 12 10 12 8 13 7 14 13 9 12 3 2 3 5 4 6 5 7 7 15 19 14 30 38 47 42 41 40 39 40 40 33 30 23
31 30 28 27 26 24 23 23 22 14 7 7 6 8 18 19 14 8 7 10 13 9 15 15 23 15 13 4 5 10 6 4 4 5 6 6 4 11 25 27 32 36 42 46 50 44 38 36 34 31 27 22 17 14
27 26 25 27 22 20 20 19 11 6 9 12 16 21 18 5 11 8 7 9 12 8 18 10 13 14 8 7 6 8 5 2 8 7 5 3 8 33 37 41 41 40 38 38 35 37 32 26 22 24 20 11 6 2
27 24 26 21 19 19 19 17 10 9 10 3 5 5 7 9 5 10 8 7 2 3 5 11 6 7 4 7 9 6 6 7 6 6 6 5 26 43 45 41 38 35 34 32 29 27 24 24 22 12 5 5 9 12
25 25 20 18 17 17 18 11 6 3 4 5 6 8 9 10 10 9 6 6 10 10 19 24 15 5 3 5 7 6 8 7 3 4 2 11 39 48 43 38 34 34 33 30 28 25 21 21 17 4 8 14 18 18
21 19 17 14 8 3 1 4 5 8 4 7 9 9 13 26 25 9 13 14 11 19 23 19 13 12 6 7 5 8 7 2 6 4 8 36 49 43 40 39 35 29 28 27 23 23 22 16 12 8 12 15 17 17
17 13 8 7 6 11 2 8 8 10 7 9 15 14 30 23 14 20 23 15 16 18 27 15 4 6 7 2 7 5 5 4 6 5 40 48 46 35 37 35 31 33 27 25 21 18 14 9 2 5 11 10 10 12
14 10 9 3 8 9 2 3 10 10 11 11 17 35 45 31 29 27 21 20 15 13 4 6 5 3 8 5 6 5 2 6 30 35 39 39 39 42 39 34 31 28 24 22 22 17 14 9 9 6 13 8 7 8
11 15 17 6 5 2 8 13 9 11 15 25 23 36 33 28 26 21 24 20 10 2 3 5 6 6 7 8 5 7 18 24 29 33 39 40 44 39 36 30 28 27 26 19 9 10 10 5 1 6 8 4 2 9
26 21 17 11 9 9 6 11 15 12 26 33 38 40 37 29 28 25 24 18 10 7 10 3 4 5 5 8 11 2 11 25 32 35 38 38 35 33 32 29 26 23 20 19 17 8 3 6 5 6 3 2 2 3
27 27 23 17 13 9 9 11 18 14 14 15 24 35 26 25 22 24 22 19 15 8 7 6 7 14 8 17 15 6 14 21 42 42 37 32 30 30 25 25 26 26 20 16 9 8 8 3 5 5 1 5 6 6
10 10 11 12 14 16 11 10 14 18 19 22 32 33 19 27 27 25 26 23 16 9 8 22 28 25 17 19 13 16 22 26 31 40 42 38 32 27 23 20 27 23 25 25 20 13 5 6 3 4 5 5 6 10
10 11 9 14 11 11 15 19 15 16 16 27 37 34 24 21 19 4 13 14 11 25 27 23 19 18 12 10 12 27 32 23 27 26 32 35 36 31 28 19 14 31 18 14 13 11 8 6 5 5 3 8 6 7
12 11 10 11 12 10 15 15 11 11 8 8 11 14 13 6 4 4 4 6 8 18 16 15 18 13 13 20 25 24 15 29 31 38 37 33 28 25 18 16 21 26 20 13 13 16 10 4 9 9 10 10 10 16
12 7 8 9 18 9 11 9 13 10 14 17 13 20 5 6 7 4 5 6 11 8 11 9 8 9 26 23 24 22 25 26 26 26 32 32 29 22 20 19 16 14 15 22 16 5 8 8 11 11 11 11 11 11
5 9 8 10 11 10 9 19 27 18 24 20 9 11 9 11 2 4 2 1 13 9 8 7 8 16 13 21 18 17 25 22 24 19 27 32 35 31 24 19 14 9 16 16 12 11 14 8 8 11 15 14 12 9
9 11 14 11 10 11 9 6 5 9 16 9 8 9 6 7 6 4 2 7 17 10 3 2 4 5 14 8 13 15 18 17 19 18 26 28 25 30 29 28 23 21 19 14 20 16 13 14 11 12 9 13 20 16
8 10 19 19 23 21 12 19 24 13 15 9 6 4 3 3 5 1 1 13 20 16 18 15 13 17 21 16 11 6 8 15 24 16 16 24 22 24 25 28 29 20 22 20 22 21 14 22 22 18 13 10 16 15
14 11 16 19 23 25 19 17 15 9 7 11 5 6 3 5 3 6 7 16 19 17 12 9 13 16 16 20 15 9 13 11 28 12 16 24 20 18 16 17 17 15 17 17 19 26 20 17 19 23 18 7 13 20
15 15 19 23 21 14 11 13 14 5 13 14 4 4 5 6 13 11 9 14 15 21 29 24 23 10 9 16 17 6 10 15 21 23 17 31 31 26 17 11 9 14 17 18 20 21 22 22 23 20 17 9 2 12
23 27 21 18 16 11 18 9 1 5 5 13 12 20 19 14 13 10 12 13 12 13 17 16 19 23 22 8 7 5 13 13 15 19 19 22 24 21 20 19 19 11 17 16 21 26 26 22 22 25 24 22 18 12
11 8 23 28 22 23 15 7 2 11 10 5 5 13 14 11 13 13 17 13 13 16 23 27 32 30 25 25 22 11 8 11 9 13 18 19 16 16 16 10 9 1 12 20 18 20 27 32 31 33 30 29 28 20
20 22 19 16 19 15 14 8 12 6 2 2 9 12 19 18 10 8 14 9 14 21 20 17 16 15 18 18 14 13 13 11 8 8 10 10 12 18 14 18 19 19 12 10 19 19 27 22 32 28 29 32 33 33
23 24 24 22 19 20 4 3 3 5 4 6 14 20 18 11 8 9 12 16 15 15 12 12 5 6 5 5 5 11 8 7 11 14 10 14 20 20 19 25 25 20 16 18 14 19 26 24 28 31 33 32 32 35
Wind_Direction_850mb
308 310 313 315 316 317 320 318 320 318 318 323 323 321 323 325 331 323 315 312 296 279 286 287 276 293 292 287 283 288 323 32 322 355 330 349 295 311 300 280 337 329 268 240 275 322 360 348 350 25 307 299 312 192
305 307 310 312 313 312 314 315 320 319 318 318 318 321 321 321 322 320 306 309 288 289 274 286 293 287 274 270 272 275 264 299 270 315 327 303 283 288 311 331 342 40 355 15 18 354 306 327 330 324 326 79 129 167
304 306 307 309 311 310 315 315 314 315 317 316 319 318 317 319 316 310 306 315 316 292 303 284 292 314 297 287 289 243 265 244 235 224 276 282 281 296 305 8 318 48 18 39 235 353 347 4 13 15 46 78 120 135
300 301 303 306 308 309 313 311 311 312 312 312 315 316 319 320 317 312 306 314 286 285 285 286 316 316 344 308 248 253 262 256 266 226 225 261 272 286 317 342 348 318 337 15 50 314 356 27 35 36 62 77 103 116
296 297 299 302 305 307 308 308 307 307 307 310 313 317 317 316 317 322 325 324 283 251 285 299 318 344 334 322 295 253 264 245 225 183 218 230 241 256 292 23 6 352 343 26 22 60 66 46 53 64 74 71 87 97
291 293 295 296 299 302 311 309 306 302 305 311 313 316 314 311 324 338 329 322 62 32 305 306 300 293 343 347 305 299 278 242 208 194 225 254 248 246 31 50 4 56 62 86 87 80 70 67 65 69 78 80 87 87
286 287 290 291 292 294 302 305 303 302 307 312 312 309 305 305 293 263 243 246 295 330 299 300 290 286 326 339 317 1 292 254 209 233 220 228 287 139 36 59 186 354 93 97 91 84 70 69 73 76 79 78 85 93
277 279 283 285 289 294 297 302 301 304 311 312 309 308 302 294 290 292 326 302 249 245 258 278 281 283 0 331 323 306 337 196 231 259 232 266 4 82 55 267 267 238 230 144 121 112 105 95 88 87 84 81 81 85
268 269 275 278 283 290 297 297 300 308 315 313 316 308 293 274 242 291 313 289 272 223 255 218 263 298 330 333 299 287 219 229 165 247 236 149 44 72 203 221 187 151 132 119 109 114 92 86 83 84 86 85 86 90
257 257 267 270 280 289 290 295 305 312 319 314 319 299 255 262 326 308 309 200 203 214 227 257 283 280 320 344 294 319 263 4 281 226 86 62 43 101 157 200 172 158 138 121 105 94 92 84 83 79 79 86 91 89
241 250 258 267 278 278 285 297 309 317 321 22 294 253 270 269 293 241 247 212 181 220 212 236 238 253 275 252 294 295 322 209 267 188 106 141 133 189 141 134 110 107 104 101 101 102 103 104 100 95 89 89 91 97
241 250 254 270 266 274 285 291 290 293 281 284 292 305 312 258 231 250 229 204 204 228 174 215 251 236 233 236 260 266 261 182 237 137 63 104 155 165 128 113 108 107 104 101 102 98 92 91 101 103 98 89 75 58
242 253 265 255 261 272 276 282 277 292 327 166 259 265 248 246 237 226 226 227 239 78 220 255 290 185 198 235 253 262 273 237 176 35 133 148 145 135 124 121 118 117 115 111 107 102 99 101 96 82 68 356 329 316
245 252 243 250 261 269 272 265 242 268 165 242 233 240 235 210 233 217 274 305 304 303 312 325 327 235 270 202 230 257 244 257 97 70 94 138 132 133 134 134 132 130 121 113 109 106 110 119 106 62 0 345 351 14
233 228 235 240 260 320 252 183 196 177 216 254 234 239 233 244 273 312 272 274 317 310 330 320 288 192 225 253 221 267 254 103 101 220 131 143 145 142 143 142 136 131 126 115 107 101 98 108 110 71 11 3 20 20
209 221 233 172 77 21 1 192 194 188 233 235 236 252 277 294 310 304 310 324 319 301 311 281 272 256 249 308 247 254 321 138 159 92 135 143 141 153 148 141 143 135 124 117 106 98 99 113 200 12 19 40 37 21
189 164 176 70 27 15 33 172 178 215 239 230 237 236 253 277 276 282 294 311 315 330 325 302 266 301 287 230 313 30 351 109 117 126 136 147 149 146 140 135 130 128 127 123 114 105 102 99 117 90 34 59 70 24
165 193 208 224 342 4 249 209 229 239 244 246 256 261 261 239 259 273 259 270 279 295 0 354 318 279 299 324 71 313 67 100 118 133 146 142 141 143 144 140 137 137 137 130 116 119 107 121 83 24 30 87 100 8
180 203 216 235 272 237 241 220 212 256 239 248 254 260 266 252 241 250 253 267 242 225 148 203 270 250 281 33 357 188 138 123 131 137 136 144 146 141 141 143 146 147 148 138 146 150 98 82 96 102 129 137 149 98
218 234 249 257 230 214 235 230 214 249 264 269 275 277 272 254 241 244 243 239 221 199 211 211 227 230 245 284 307 225 185 148 140 129 137 144 147 148 156 164 158 170 175 171 159 146 116 63 53 117 188 164 160 131
158 186 205 221 207 223 266 256 235 249 268 273 273 278 254 256 251 238 240 224 202 207 226 226 247 274 280 288 268 187 171 171 166 158 158 156 165 161 170 179 185 187 170 172 166 153 139 56 102 135 81 135 161 155
186 186 206 202 234 231 247 239 244 280 292 266 278 271 268 251 245 246 253 225 225 231 233 248 264 286 298 306 183 178 182 180 173 164 170 169 173 180 181 188 192 163 151 152 155 163 145 131 131 89 88 148 179 167
175 195 217 225 226 240 257 236 229 232 250 293 298 232 257 238 96 306 253 273 257 234 237 243 260 278 301 157 161 177 171 174 168 169 174 177 173 165 174 172 164 139 137 147 139 166 165 80 126 119 117 128 136 148
196 217 228 226 208 250 252 224 232 242 252 252 257 244 133 126 341 219 247 205 249 244 213 247 329 71 156 164 167 170 159 157 164 175 169 165 159 162 154 148 152 146 165 173 184 143 116 97 142 153 128 114 124 118
204 243 220 255 243 239 260 252 242 245 263 270 308 272 132 138 223 213 232 193 134 119 137 50 72 163 164 155 140 143 168 167 155 153 158 160 147 141 139 151 163 179 190 182 161 145 163 145 146 142 157 143 145 157
223 227 199 222 228 224 238 293 312 313 294 268 259 27 114 156 195 46 343 90 92 63 137 62 83 78 140 197 197 146 141 169 163 165 164 172 162 161 164 171 175 174 202 209 183 188 173 166 172 193 146 145 157 159
241 249 221 241 259 285 292 300 308 275 284 295 19 51 49 54 78 228 15 94 76 59 110 108 120 111 110 99 152 179 202 168 186 177 168 170 170 177 180 191 199 209 207 201 191 199 186 178 192 203 211 191 171 163
241 273 259 252 253 265 276 288 292 299 336 4 13 69 75 50 0 351 62 109 103 76 76 116 133 150 167 144 116 119 148 163 169 166 153 164 163 164 173 181 188 210 214 212 192 199 203 188 179 196 227 220 177 169
235 243 256 264 261 251 246 252 254 35 335 1 63 73 88 109 126 63 94 111 112 89 81 89 80 93 136 165 172 254 181 177 178 179 148 138 133 115 120 139 161 185 204 202 207 214 209 199 203 204 224 250 233 169
243 229 237 248 236 246 253 273 26 152 84 47 91 104 96 101 68 44 94 95 93 99 105 86 87 83 76 103 134 140 72 75 129 151 171 131 127 142 147 142 128 109 200 209 198 205 209 205 200 201 204 213 221 211
238 224 232 245 255 263 264 280 93 151 127 100 139 158 135 126 134 86 88 81 111 109 112 99 95 88 77 66 58 51 104 138 145 139 153 150 169 185 137 189 175 359 181 195 206 211 210 212 213 212 209 209 221 227
230 235 247 255 260 265 254 209 180 136 53 148 203 183 153 141 126 95 48 95 113 108 108 106 109 101 100 91 79 65 60 73 111 130 138 163 184 208 216 192 200 201 185 192 203 226 228 214 212 217 217 215 218 227
219 234 231 240 256 263 211 102 101 123 149 205 211 190 164 140 117 145 109 109 112 113 107 98 70 314 333 213 135 129 70 324 313 309 280 250 244 238 228 224 228 227 227 199 198 207 209 216 221 222 226 226 224 225